sat.trackr.live / text

‹ back to catalog

STARLINK-34376

NORAD 64300 · 2025-123K

PAYLOAD ACTIVE UNKNOWN

§ Identity

Operator
Country
US
Launch date
2025-06-08
Launch site
AFWTR
Launch vehicle
Mass (kg)
RCS (m²)

Purposes: comms

External: N2YO · Heavens-Above · Gunter

§ Orbital elements

Epoch: 2026-05-25T01:16:04.893024Z

Period
96.11 min
Inclination
70.0024°
Eccentricity
0.0002874
Mean motion
14.98337549 rev/d
Perigee alt
570.0 km
Apogee alt
574.0 km
Semi-major
6,950.2 km
B*
2.4549e-4
RAAN
2.0562°
Arg perigee
268.9247°
Mean anomaly
91.1583°
Rev number
5,305

§ Raw data

STARLINK-343761 64300U 25123K   26145.05283441  .00002838  00000+0  24549-3 0  99982 64300  70.0024   2.0562 0002874 268.9247  91.1583 14.98337549 53055

JSON: /api/v1/satellites/64300 · /tle

For live sub-satellite position, see the globe view (requires WebGL).

§ Visibility from observer

Set your observer location to see the next 7 days of passes ≥ 10°. The values pass through the URL so the page stays shareable.

No JS? Fill the form by hand. The geolocation button needs JavaScript.